Hinckley, MN

9:22 AM CST on January 20, 2018 (GMT -0600)
Hinckley

Weather History for K04W - December, 2013

Change the Weather History Date:

Thursday, December 26, 2013

  Actual Average (KJMR) Record (KJMR)
Temperature  
Mean Temperature 14 °F -  
Max Temperature 19 °F 20 °F 44 °F (2011)
Min Temperature 8 °F -2 °F -30 °F (1990)
Degree Days  
Heating Degree Days 52    
Moisture  
Dew Point 10 °F    
Average Humidity 84    
Maximum Humidity 93    
Minimum Humidity 73    
Precipitation  
Precipitation 0.00 in - - ()
Sea Level Pressure  
Sea Level Pressure 30.09 in    
Wind  
Wind Speed 0 mph (West)    
Max Wind Speed 4 mph    
Max Gust Speed -    
Visibility 9 miles    
Events Snow    
Averages and records for this station are not official NWS values.
T = Trace of Precipitation, MM = Missing Value Source: NWS Daily Summary

Daily Weather History Graph

Daily Weather History Graph

Search for Another Location

Airport or City:

Trip Planner

Search our weather history database for the weather conditions in past years. The results will help you decide how hot, cold, wet, or windy it might be!

Date:

Astronomy

Dec. 26, 2013 Rise Set
Actual Time 7:52 AM CST 4:32 PM CST
Civil Twilight 7:18 AM CST 5:06 PM CST
Nautical Twilight 6:40 AM CST 5:44 PM CST
Astronomical Twilight 6:03 AM CST 6:21 PM CST
Moon 1:07 AM CST (12/26) 12:21 PM CST (12/26)
Length of Visible Light 9h 48m
Length of Day
8h 39m
Last Quarter, 38% of the Moon is Illuminated
Dec 26
Last Quarter
Jan 1
New
Jan 7
First Quarter
Jan 15
Full
Jan 23
Last Quarter

Hourly Weather History & Observations

Time (CST) Temp. Windchill Dew Point Humidity Pressure Visibility Wind Dir Wind Speed Gust Speed Precip Events Conditions
12:14 AM 10.4 °F 4.0 °F 5.0 °F 79% 30.08 in 10.0 mi West 3.5 mph - N/A   Overcast
12:34 AM 10.4 °F - 5.0 °F 79% 30.07 in 10.0 mi Calm Calm - N/A   Overcast
12:54 AM 10.4 °F - 5.0 °F 79% 30.07 in 10.0 mi Calm Calm - N/A   Overcast
1:15 AM 8.6 °F - 5.0 °F 85% 30.06 in 10.0 mi Calm Calm - N/A   Overcast
1:34 AM 8.6 °F - 5.0 °F 85% 30.06 in 10.0 mi Calm Calm - N/A   Overcast
1:54 AM 8.6 °F - 5.0 °F 85% 30.06 in 10.0 mi Calm Calm - N/A   Overcast
2:14 AM 8.6 °F - 5.0 °F 85% 30.07 in 10.0 mi Calm Calm - N/A   Overcast
2:34 AM 8.6 °F - 5.0 °F 85% 30.07 in 10.0 mi Calm Calm - N/A   Overcast
2:54 AM 8.6 °F - 5.0 °F 85% 30.07 in 10.0 mi Calm Calm - N/A   Overcast
3:14 AM 10.4 °F - 6.8 °F 85% 30.07 in 3.0 mi Calm Calm - N/A Snow Light Snow
3:34 AM 10.4 °F - 6.8 °F 85% 30.06 in 4.0 mi Calm Calm - N/A Snow Light Snow
3:55 AM 10.4 °F - 8.6 °F 92% 30.07 in 2.5 mi Calm Calm - N/A Snow Light Snow
4:14 AM 10.4 °F - 8.6 °F 92% 30.07 in 3.0 mi Calm Calm - N/A Snow Light Snow
4:34 AM 10.4 °F - 8.6 °F 92% 30.07 in 1.5 mi Calm Calm - N/A Snow Light Snow
4:55 AM 10.4 °F - 8.6 °F 92% 30.07 in 4.0 mi Calm Calm - N/A Snow Light Snow
5:14 AM 10.4 °F - 8.6 °F 92% 30.07 in 5.0 mi Calm Calm - N/A Snow Light Snow
5:34 AM 10.4 °F - 8.6 °F 92% 30.07 in 3.0 mi Calm Calm - N/A Snow Light Snow
5:55 AM 10.4 °F - 8.6 °F 92% 30.07 in 5.0 mi Calm Calm - N/A Snow Light Snow
6:14 AM 10.4 °F - 8.6 °F 92% 30.07 in 7.0 mi Calm Calm - N/A Snow Light Snow
6:34 AM 10.4 °F - 8.6 °F 92% 30.07 in 10.0 mi Calm Calm - N/A Snow Light Snow
6:55 AM 10.4 °F - 8.6 °F 92% 30.07 in 10.0 mi Calm Calm - N/A Snow Light Snow
7:14 AM 10.4 °F - 8.6 °F 92% 30.08 in 10.0 mi Calm Calm - N/A   Overcast
7:34 AM 10.4 °F - 8.6 °F 92% 30.07 in 10.0 mi Calm Calm - N/A   Overcast
7:55 AM 10.4 °F - 8.6 °F 92% 30.08 in 10.0 mi Calm Calm - N/A   Overcast
8:14 AM 12.2 °F - 8.6 °F 85% 30.08 in 10.0 mi Calm Calm - N/A   Overcast
8:34 AM 12.2 °F - 8.6 °F 85% 30.08 in 10.0 mi Calm Calm - N/A   Overcast
8:55 AM 12.2 °F - 8.6 °F 85% 30.08 in 10.0 mi Calm Calm - N/A   Overcast
9:14 AM 12.2 °F - 8.6 °F 85% 30.09 in 10.0 mi Calm Calm - N/A   Overcast
9:34 AM 12.2 °F - 8.6 °F 85% 30.09 in 10.0 mi Calm Calm - N/A   Overcast
9:54 AM 12.2 °F - 10.4 °F 92% 30.10 in 10.0 mi Calm Calm - N/A   Overcast
10:14 AM 14.0 °F - 10.4 °F 86% 30.11 in 10.0 mi Calm Calm - N/A   Overcast
10:35 AM 14.0 °F - 10.4 °F 86% 30.11 in 10.0 mi Calm Calm - N/A   Overcast
10:54 AM 14.0 °F - 10.4 °F 86% 30.11 in 10.0 mi Calm Calm - N/A Snow Light Snow
11:14 AM 14.0 °F - 10.4 °F 86% 30.11 in 10.0 mi Calm Calm - N/A   Overcast
11:35 AM 15.8 °F - 10.4 °F 79% 30.10 in 10.0 mi Calm Calm - N/A   Overcast
11:54 AM 17.6 °F - 10.4 °F 73% 30.09 in 10.0 mi Calm Calm - N/A   Overcast
12:14 PM 17.6 °F - 10.4 °F 73% 30.09 in 10.0 mi Calm Calm - N/A   Overcast
12:35 PM 17.6 °F - 10.4 °F 73% 30.09 in 10.0 mi Calm Calm - N/A   Overcast
12:54 PM 17.6 °F - 10.4 °F 73% 30.08 in 10.0 mi Calm Calm - N/A   Overcast
1:14 PM 17.6 °F - 12.2 °F 79% 30.08 in 10.0 mi Calm Calm - N/A   Overcast
1:35 PM 17.6 °F - 12.2 °F 79% 30.07 in 10.0 mi Calm Calm - N/A   Overcast
1:54 PM 17.6 °F - 12.2 °F 79% 30.06 in 10.0 mi Calm Calm - N/A   Overcast
2:15 PM 19.4 °F - 12.2 °F 74% 30.06 in 10.0 mi Calm Calm - N/A   Overcast
2:34 PM 19.4 °F - 12.2 °F 74% 30.06 in 10.0 mi Calm Calm - N/A   Overcast
2:54 PM 19.4 °F - 12.2 °F 74% 30.07 in 10.0 mi Calm Calm - N/A   Overcast
3:15 PM 19.4 °F - 12.2 °F 74% 30.07 in 10.0 mi Calm Calm - N/A   Overcast
3:34 PM 19.4 °F - 12.2 °F 74% 30.08 in 10.0 mi Calm Calm - N/A   Overcast
3:54 PM 19.4 °F - 12.2 °F 74% 30.09 in 10.0 mi Calm Calm - N/A   Overcast
4:15 PM 19.4 °F - 12.2 °F 74% 30.09 in 10.0 mi Calm Calm - N/A   Overcast
4:34 PM 19.4 °F - 12.2 °F 74% 30.10 in 10.0 mi Calm Calm - N/A   Overcast
4:55 PM 19.4 °F - 14.0 °F 80% 30.11 in 10.0 mi Calm Calm - N/A   Overcast
5:15 PM 19.4 °F - 12.2 °F 74% 30.11 in 10.0 mi Calm Calm - N/A   Overcast
5:34 PM 19.4 °F - 14.0 °F 80% 30.11 in 10.0 mi Calm Calm - N/A   Overcast
5:55 PM 19.4 °F - 14.0 °F 80% 30.12 in 10.0 mi Calm Calm - N/A   Overcast
6:14 PM 19.4 °F - 14.0 °F 80% 30.13 in 10.0 mi Calm Calm - N/A   Overcast
6:35 PM 19.4 °F - 14.0 °F 80% 30.13 in 10.0 mi Calm Calm - N/A   Overcast
6:55 PM 19.4 °F - 14.0 °F 80% 30.13 in 10.0 mi Calm Calm - N/A   Overcast
7:14 PM 17.6 °F - 12.2 °F 79% 30.14 in 10.0 mi Calm Calm - N/A   Overcast
7:35 PM 15.8 °F - 12.2 °F 86% 30.14 in 10.0 mi Calm Calm - N/A   Overcast
7:55 PM 17.6 °F - 14.0 °F 86% 30.14 in 10.0 mi Calm Calm - N/A   Overcast
8:14 PM 17.6 °F - 14.0 °F 86% 30.14 in 10.0 mi Calm Calm - N/A   Overcast
8:35 PM 17.6 °F - 14.0 °F 86% 30.13 in 10.0 mi Calm Calm - N/A   Overcast
8:55 PM 17.6 °F - 14.0 °F 86% 30.13 in 10.0 mi Calm Calm - N/A   Overcast
9:14 PM 17.6 °F - 14.0 °F 86% 30.13 in 10.0 mi Calm Calm - N/A   Overcast
9:35 PM 17.6 °F - 14.0 °F 86% 30.13 in 10.0 mi Calm Calm - N/A   Overcast
9:55 PM 17.6 °F - 14.0 °F 86% 30.13 in 10.0 mi Calm Calm - N/A   Overcast
10:14 PM 14.0 °F - 12.2 °F 93% 30.13 in 10.0 mi Calm Calm - N/A   Mostly Cloudy
10:35 PM 14.0 °F - 12.2 °F 93% 30.13 in 10.0 mi Calm Calm - N/A   Overcast
10:54 PM 12.2 °F - 10.4 °F 92% 30.13 in 10.0 mi Calm Calm - N/A   Overcast
11:14 PM 10.4 °F - 8.6 °F 92% 30.13 in 10.0 mi Calm Calm - N/A   Overcast
11:35 PM 12.2 °F - 10.4 °F 92% 30.13 in 10.0 mi Calm Calm - N/A   Overcast
11:54 PM 12.2 °F - 10.4 °F 92% 30.13 in 10.0 mi Calm Calm - N/A   Overcast